Wind_Speed
46 46 46 47 46 45 45 44 43 44 45 46 46 46 47 47 47 46 46 46 46 46 46 46 46 46 47 48 50 52 53 54 54 54 55 57 58 59 59 59 59 59 57 56 56 56 56 55 54 54 54 53 52 51 50 49 49 49 48 49 52 53 54 55 56 56 55 54 54 53 54 55 55 56 55 55 56 56 57 58 59 58 59 59 59 59 59 60
46 46 47 47 47 46 47 46 45 45 46 47 47 47 47 46 46 46 45 45 44 44 44 44 44 45 47 49 51 52 53 54 54 55 56 57 58 58 58 58 58 58 57 56 56 56 55 55 54 54 55 54 53 53 53 51 51 50 49 50 52 52 53 54 55 56 56 56 56 56 56 56 56 56 57 57 58 58 59 61 60 60 61 61 61 62 62 62
47 47 47 47 46 46 47 48 47 46 47 48 47 47 46 45 45 44 44 44 44 44 44 44 45 47 49 51 52 53 53 54 55 56 56 56 56 56 56 57 57 57 57 56 56 55 54 54 54 54 56 57 56 57 56 55 54 53 52 53 54 53 55 57 57 58 59 60 61 61 60 60 60 60 61 62 62 63 65 65 63 63 64 64 64 64 64 64
48 47 48 48 46 45 45 46 46 47 47 48 46 45 43 43 43 43 44 44 45 45 45 46 47 48 49 51 52 53 53 54 55 55 55 55 55 55 56 56 56 56 57 56 56 54 54 53 53 55 57 58 59 60 60 58 57 56 55 56 57 57 59 60 60 61 62 63 64 65 64 65 65 64 66 66 66 68 71 69 67 69 69 69 69 69 68 68
50 49 49 48 47 46 45 45 45 46 46 46 44 42 42 42 43 44 45 45 45 44 45 46 46 47 48 49 51 52 53 53 54 54 55 55 56 56 55 55 55 55 55 55 54 54 53 53 53 54 57 59 61 63 63 61 60 60 60 61 61 61 62 62 63 64 65 66 67 67 67 68 68 67 68 68 69 72 73 70 69 70 69 69 70 70 70 69
52 52 51 49 48 46 44 43 43 43 44 44 42 42 42 43 44 44 44 43 43 43 43 44 45 46 47 49 50 51 52 53 54 54 55 55 56 56 55 55 54 53 53 52 52 52 53 53 54 54 56 58 61 64 64 63 63 64 65 66 66 66 66 66 66 66 67 67 68 68 68 70 69 68 68 69 72 74 72 70 69 68 67 66 67 68 69 68
53 53 52 51 48 45 43 41 40 40 41 41 41 41 41 43 43 42 41 41 41 41 41 42 44 45 47 49 50 51 52 53 54 54 55 55 55 55 54 53 52 51 51 50 51 51 52 53 54 55 57 58 60 63 65 65 66 67 69 69 70 70 70 71 70 70 69 68 69 69 70 71 71 70 70 72 76 74 69 68 68 68 67 66 66 67 67 67
51 53 52 49 47 44 42 40 40 40 40 40 40 40 40 41 40 39 39 38 38 39 40 42 44 45 47 49 50 51 53 53 54 54 54 54 53 53 52 51 50 49 49 49 49 50 51 52 53 55 57 58 60 62 64 66 67 69 71 72 72 73 74 75 75 75 74 73 73 73 74 74 74 74 73 76 78 73 68 69 70 70 69 69 70 71 70 70
49 49 49 47 45 43 42 41 41 41 40 40 39 39 38 37 36 36 35 36 37 38 40 42 44 46 48 49 50 52 53 53 53 53 53 52 52 51 49 48 47 47 47 48 48 49 50 51 53 54 56 58 59 61 63 64 66 68 70 71 73 74 75 76 77 77 77 78 77 77 78 78 77 75 74 79 79 73 71 72 72 72 72 72 73 73 74 74
48 47 47 45 44 43 42 41 41 40 40 39 37 35 34 34 33 33 34 35 37 39 41 42 45 47 48 50 51 52 52 52 52 52 51 50 49 48 47 46 46 46 46 47 48 49 50 51 52 54 55 57 58 59 61 62 64 66 67 69 71 72 73 74 76 77 77 78 78 78 79 80 79 77 77 81 79 76 76 75 75 76 76 76 76 76 76 76
49 47 46 45 44 42 41 40 40 40 38 36 33 32 32 32 32 33 35 37 38 40 41 43 46 47 48 49 50 51 51 50 50 50 49 48 47 46 45 45 45 46 47 48 49 49 50 51 52 53 55 56 57 58 59 61 62 64 65 66 68 70 71 73 73 74 74 75 76 77 77 78 80 81 82 84 82 81 80 79 80 81 81 81 81 80 80 80
50 48 47 46 44 42 41 41 40 37 34 33 31 31 31 31 32 34 36 37 39 40 42 44 46 48 48 49 49 50 49 48 48 47 46 45 45 45 45 45 46 46 47 48 49 50 50 51 52 53 54 55 56 57 58 60 61 62 63 64 66 68 69 71 71 72 72 72 73 74 73 75 80 83 84 85 84 85 84 84 85 85 85 85 85 85 85 85
49 48 47 45 44 42 42 41 37 34 32 31 30 30 31 32 34 35 36 38 39 41 43 45 46 47 47 48 48 47 47 46 45 45 44 44 44 45 46 46 47 47 47 48 49 49 50 51 52 52 54 55 56 58 58 60 60 61 62 63 65 66 68 70 70 71 71 71 72 72 69 72 80 82 81 81 81 83 84 85 86 86 87 87 87 88 88 88
48 47 46 44 43 42 41 38 34 32 31 31 30 31 32 34 35 36 37 38 40 42 44 45 46 46 46 46 46 45 44 44 43 43 43 44 44 45 46 47 47 47 48 48 49 50 51 52 52 53 54 55 56 57 58 59 60 61 61 62 64 65 67 69 70 70 70 70 72 72 68 70 79 82 79 77 77 78 80 81 82 83 84 85 85 85 86 87
46 46 45 43 41 40 38 34 32 31 31 31 32 32 34 35 36 37 38 39 41 43 44 45 45 45 45 44 43 43 42 42 41 42 43 44 45 46 46 47 47 47 48 49 50 51 51 52 52 53 54 54 55 55 56 57 58 58 58 60 62 62 64 67 68 68 68 69 71 71 68 69 78 81 78 76 75 75 76 78 80 81 82 82 83 84 84 86
42 42 41 40 38 37 34 32 31 31 31 32 32 33 34 35 36 37 38 39 41 42 43 43 44 43 42 41 40 40 40 40 41 42 43 44 45 45 46 47 48 48 49 50 51 51 52 52 52 53 53 54 54 54 55 56 56 56 56 57 59 59 60 62 64 64 65 66 68 69 66 67 75 79 77 74 73 73 74 77 80 80 80 81 82 83 84 85
38 38 38 37 35 33 32 31 31 31 31 32 33 34 35 36 37 37 38 40 41 42 42 42 42 41 39 39 39 39 40 40 41 42 43 44 44 45 46 47 48 49 50 51 51 52 52 53 53 53 53 53 53 53 53 54 54 55 54 55 56 57 58 59 60 61 62 63 65 66 64 66 73 75 73 71 70 70 73 76 77 77 77 78 79 80 81 81
36 35 35 34 32 32 31 31 31 32 33 33 34 35 36 36 37 37 39 40 40 41 41 40 39 38 37 38 38 39 40 40 41 42 43 44 44 45 47 48 49 50 51 51 52 52 52 53 53 53 53 52 52 52 52 52 53 53 53 53 54 56 56 57 58 60 61 62 63 63 61 65 70 70 69 68 67 68 71 73 73 73 73 74 75 76 77 77
34 34 33 32 31 31 31 32 33 33 34 34 35 36 36 36 37 38 39 39 40 39 38 37 36 36 37 37 38 38 39 40 41 42 43 44 45 46 48 49 49 49 50 51 51 52 52 52 52 52 52 52 52 52 52 52 52 52 52 52 52 54 56 55 55 57 58 59 61 58 57 61 63 63 63 62 62 64 66 67 68 69 69 69 70 70 71 71
34 33 32 31 31 31 32 33 34 35 36 36 36 36 36 36 37 38 38 38 38 36 35 35 35 36 37 37 37 38 40 40 41 42 43 44 46 47 48 48 49 49 50 50 51 51 51 51 51 51 51 51 51 51 51 51 51 51 50 50 50 51 53 53 52 53 54 54 57 54 52 56 58 57 57 56 56 58 60 60 62 63 62 63 63 64 64 65
35 34 32 32 32 32 33 34 35 36 36 36 36 35 35 36 37 37 37 36 35 34 34 35 35 36 36 36 37 39 40 40 41 42 44 45 46 47 48 48 48 49 49 49 50 50 50 50 49 49 49 49 49 49 49 49 48 48 47 47 47 47 49 50 49 50 50 49 52 50 48 53 55 53 52 53 53 54 54 55 57 58 59 59 60 60 61 62
35 34 33 32 33 33 34 35 35 36 36 36 35 35 35 36 37 37 35 34 33 34 34 34 35 35 36 37 38 39 39 40 41 43 44 46 46 47 48 48 48 48 48 49 48 48 48 48 48 48 48 48 48 48 47 46 46 45 45 44 44 43 44 46 46 46 46 46 48 47 45 51 54 52 50 50 52 53 52 53 55 55 56 57 58 59 59 60
35 35 34 34 34 34 35 35 36 36 36 35 35 35 36 36 36 35 33 32 32 33 33 34 34 35 36 37 38 39 39 41 42 43 45 46 47 47 48 48 48 47 47 47 47 47 47 47 47 47 47 47 47 46 46 45 44 43 43 42 42 41 41 42 43 43 43 43 43 43 43 49 53 51 50 49 51 52 51 52 53 54 55 57 57 58 58 59
36 36 35 35 35 35 35 36 36 36 35 35 35 36 36 35 34 32 32 32 32 33 33 33 34 36 37 37 38 39 40 41 43 44 45 46 47 47 47 48 47 47 46 46 46 46 46 46 46 46 46 46 45 45 44 44 43 42 42 42 41 41 39 40 41 41 41 40 39 37 37 46 52 50 49 49 49 50 51 51 52 54 55 56 57 58 58 59
37 37 37 37 36 36 36 36 36 35 35 35 35 35 34 33 31 31 31 31 32 32 32 33 35 36 37 37 38 39 40 42 43 44 45 46 47 47 47 47 47 46 46 46 45 45 45 45 45 45 44 44 44 44 43 43 43 42 41 41 41 40 40 39 40 40 40 41 40 35 31 37 48 50 47 47 48 49 49 51 53 54 55 56 57 58 59 60
36 37 38 37 37 37 37 36 35 34 34 35 35 34 32 31 30 31 31 31 31 32 32 34 35 36 37 37 38 40 41 43 43 44 45 46 47 47 47 47 47 46 46 46 46 45 45 45 45 45 45 44 44 44 44 43 43 43 42 41 41 41 40 40 40 39 39 41 42 38 32 32 41 48 46 44 46 47 47 48 51 54 54 55 57 58 59 60
35 36 36 35 35 36 35 34 33 34 34 34 33 31 30 30 30 30 30 30 31 32 33 34 35 36 36 37 39 41 42 43 44 45 46 47 47 47 47 47 47 47 47 47 46 46 46 46 46 46 46 45 45 45 45 44 43 44 44 43 42 41 41 40 41 41 39 41 43 41 36 33 38 47 47 42 44 45 45 46 48 50 51 53 56 57 59 60
34 34 34 33 34 34 33 32 33 33 33 32 31 29 29 29 29 30 30 30 31 32 33 34 35 36 37 38 40 42 43 44 45 46 47 47 48 47 47 47 47 47 48 47 47 47 47 47 46 46 46 46 46 46 46 45 44 44 44 45 44 42 42 41 41 42 40 41 44 43 41 38 40 50 51 45 45 45 44 44 45 47 48 50 53 55 57 59
33 32 33 33 33 32 32 33 33 32 31 30 29 28 28 29 29 29 29 30 32 33 34 35 36 36 37 39 41 43 44 45 46 47 48 49 49 49 48 48 48 48 48 48 48 48 48 48 47 47 48 48 48 48 48 47 46 46 45 45 45 44 43 42 41 43 41 41 44 45 43 41 42 52 57 51 48 48 46 44 44 46 47 48 50 53 55 56
32 33 34 33 32 32 32 33 32 31 30 28 28 28 28 28 28 29 29 31 32 33 35 35 36 37 38 40 42 44 45 47 48 49 50 51 51 51 50 49 49 49 49 49 49 50 49 49 48 49 49 49 49 49 50 50 49 49 48 47 46 46 45 43 42 43 42 41 44 45 45 43 42 51 59 58 55 53 50 48 48 49 50 49 51 52 53 53
33 34 33 32 31 32 32 31 30 29 28 27 27 27 28 28 28 29 30 31 33 34 35 36 37 38 39 41 43 45 46 48 49 50 52 53 53 53 52 51 50 50 50 50 50 51 52 51 50 50 51 51 51 51 52 52 52 52 51 50 49 48 47 44 43 44 43 41 43 44 44 43 41 48 56 61 63 61 57 54 52 52 52 52 53 54 53 53
34 34 32 32 32 32 30 29 28 27 26 27 27 27 28 28 28 29 31 32 34 35 36 37 37 38 40 42 43 45 47 48 50 51 53 54 56 56 54 52 52 51 51 51 51 52 54 54 53 52 53 54 54 54 54 55 56 55 54 53 53 53 50 45 45 46 43 43 44 43 43 41 39 45 52 57 65 68 66 63 60 57 55 54 54 54 54 53
33 32 32 31 30 29 27 27 26 25 26 27 27 27 27 28 29 31 32 33 34 35 36 37 38 39 41 43 44 45 47 49 50 52 53 55 57 59 57 54 53 52 51 51 51 51 53 55 57 55 55 56 56 57 57 57 59 58 57 56 56 59 57 51 49 48 45 45 43 42 43 40 38 42 48 53 61 69 71 70 69 66 63 58 55 55 55 55
31 31 30 29 27 27 26 25 25 25 26 27 27 27 27 28 30 32 33 33 35 36 37 38 39 40 42 43 45 46 47 49 51 52 53 56 58 61 60 57 55 54 52 51 50 51 51 53 57 58 57 58 58 58 58 59 61 61 60 59 59 61 63 59 56 52 49 46 43 43 43 40 38 41 45 51 59 67 70 71 75 76 72 66 59 55 54 54
29 28 27 26 26 25 24 24 25 26 26 26 27 27 28 30 31 32 33 34 36 37 37 39 40 42 43 44 45 47 48 50 52 53 54 57 59 62 62 59 58 57 56 54 52 51 50 49 54 57 58 59 59 60 61 62 65 64 62 62 62 63 66 67 63 59 58 52 45 45 43 40 41 40 44 54 59 64 69 69 75 81 79 76 68 61 60 59
27 26 25 24 24 24 24 25 26 26 26 26 27 28 29 30 31 32 33 35 36 37 39 40 41 43 44 46 47 48 49 50 52 53 55 58 60 62 62 61 60 60 60 58 56 55 52 48 51 55 56 58 59 60 63 66 69 68 65 65 66 66 68 71 69 65 65 60 51 47 45 43 44 39 44 57 60 62 70 71 73 78 80 80 76 70 70 69
24 24 23 23 23 23 24 25 26 26 26 26 27 28 29 30 31 32 34 35 37 38 40 42 43 44 46 47 49 50 50 52 53 54 56 59 61 62 63 62 62 63 63 62 61 61 57 50 49 54 56 57 58 61 64 67 70 70 70 69 70 71 72 74 75 71 71 69 59 52 49 47 48 47 50 60 61 62 70 73 73 75 79 80 77 74 74 74
23 22 22 22 23 24 25 25 25 25 26 27 27 28 29 30 32 33 35 36 38 40 42 43 44 45 47 49 50 52 52 53 55 56 57 59 60 62 63 63 64 65 66 66 66 67 65 56 49 52 56 57 59 63 65 69 71 72 73 74 73 75 76 77 79 77 78 78 69 60 55 52 56 60 60 62 64 66 70 73 75 76 79 80 79 77 76 75
21 21 22 22 23 24 25 25 25 26 26 26 27 28 30 31 33 34 36 38 40 42 44 44 45 46 48 50 52 53 54 55 57 58 59 59 60 61 63 64 65 66 68 69 70 71 72 65 55 53 57 57 59 64 67 69 73 75 75 76 77 79 81 81 82 82 84 85 79 70 63 61 67 71 67 65 68 71 72 73 75 76 78 80 80 79 77 75
21 21 22 22 23 24 25 25 25 25 25 26 27 29 31 32 33 35 37 40 42 44 45 47 47 48 50 52 53 54 55 56 59 60 61 61 61 62 64 65 67 68 70 71 73 74 76 73 64 59 59 59 60 65 69 70 74 77 78 78 79 82 85 86 86 85 88 90 87 82 74 71 77 79 74 72 73 75 75 74 74 76 77 79 80 80 80 80
21 21 22 23 24 24 24 25 25 25 25 27 29 30 32 34 35 36 39 41 43 45 47 48 49 50 51 53 55 56 56 56 59 61 62 62 63 65 66 67 69 71 73 74 75 78 79 78 72 66 64 64 64 67 70 72 75 78 80 80 82 85 88 92 92 89 90 91 91 91 86 81 84 86 83 82 81 80 79 78 78 78 78 79 81 82 83 84
21 22 23 23 24 24 24 24 24 25 26 28 30 32 34 35 36 38 40 42 44 46 48 50 51 53 54 55 56 58 58 57 59 61 62 62 65 68 69 71 73 75 77 78 79 81 82 81 78 73 71 70 70 71 73 76 79 81 82 83 85 88 91 96 98 95 95 92 91 96 95 89 90 92 91 90 88 85 82 82 82 82 82 83 84 85 85 86
22 22 23 23 23 23 23 23 24 26 28 30 32 33 35 37 38 40 42 43 45 48 50 52 53 54 56 57 58 60 60 59 58 60 63 63 66 70 72 74 76 78 81 81 82 83 83 83 83 81 78 76 75 76 78 82 85 86 87 88 91 93 95 99 101 102 100 93 94 102 99 91 94 98 97 93 90 87 86 85 85 86 86 86 87 87 88 88
22 21 22 22 23 23 23 24 26 28 30 32 33 35 37 39 41 43 45 46 48 50 52 54 55 56 57 58 59 61 63 63 60 60 63 65 67 70 73 76 78 81 83 84 85 85 85 85 87 88 87 83 80 79 82 86 89 90 91 93 95 97 99 101 102 103 101 95 98 104 98 91 97 102 99 95 91 89 88 88 88 88 89 90 90 91 91 91
21 21 22 23 23 24 24 26 28 30 32 34 35 37 39 41 43 45 47 49 51 52 54 56 57 57 58 59 60 62 66 67 65 63 65 67 68 71 75 78 80 82 85 86 87 88 87 87 89 93 95 93 89 88 90 93 94 94 94 96 98 99 101 103 103 103 102 99 100 99 95 96 101 101 98 97 95 94 92 91 91 91 91 92 93 93 94 94
21 21 23 24 25 25 26 28 30 32 34 36 38 39 41 43 45 47 49 51 52 53 55 57 57 57 58 60 61 62 66 69 69 69 69 71 72 74 77 80 82 85 86 88 89 91 91 89 90 95 98 97 96 96 99 102 102 100 100 101 102 103 103 104 105 104 103 103 100 94 95 102 103 99 97 98 98 98 97 95 94 94 95 95 95 95 96 97
22 23 24 24 25 26 27 29 32 34 37 39 40 41 42 44 47 50 52 53 54 55 56 58 58 58 60 62 62 64 66 69 71 72 74 75 76 78 80 83 85 87 88 89 91 93 95 93 93 97 99 98 98 100 104 107 107 106 105 104 103 103 103 103 104 102 103 105 101 94 96 103 103 99 98 97 97 98 97 96 96 96 96 97 97 97 98 98
22 23 23 24 25 27 29 31 34 37 39 41 42 44 45 47 50 52 54 56 57 57 56 58 60 61 63 65 66 67 69 70 71 74 77 78 79 81 82 84 87 88 89 91 93 96 98 97 97 100 101 99 101 105 108 109 108 107 106 103 100 100 100 101 101 100 102 104 103 98 98 102 102 100 98 98 98 98 97 96 95 95 96 96 97 97 97 98
23 23 23 25 26 29 31 34 36 38 40 42 44 46 47 49 52 54 56 57 58 58 58 60 63 64 66 69 70 71 72 73 73 75 79 81 82 84 86 86 87 89 89 92 95 98 101 101 101 103 102 100 103 107 108 107 105 104 102 100 99 98 99 99 100 100 101 103 103 101 100 101 101 100 99 99 99 98 98 97 96 96 96 96 96 96 97 97
23 23 25 27 29 31 34 36 37 39 42 44 46 48 49 51 54 56 58 58 58 58 60 61 64 66 69 71 73 73 75 76 77 79 82 84 85 88 89 89 90 91 92 95 98 101 104 103 104 107 105 101 102 105 104 102 102 101 99 99 100 100 100 100 100 100 101 101 101 100 99 100 100 99 99 99 99 99 99 98 97 96 96 96 96 96 96 97
24 25 27 29 31 33 35 37 39 42 45 47 48 49 50 52 54 57 60 61 60 60 62 63 65 68 70 72 73 74 75 78 81 83 86 88 89 91 93 93 94 95 97 99 102 104 106 106 107 108 105 100 99 101 101 100 101 102 103 102 102 102 102 101 100 99 98 98 97 98 98 98 97 98 98 97 97 98 97 97 97 95 95 95 95 96 97 97
26 27 29 31 33 35 37 40 43 45 47 49 49 50 52 54 55 58 60 63 64 64 66 67 68 69 71 72 73 74 76 79 82 85 88 91 92 94 96 97 99 100 101 103 105 107 108 108 107 106 103 100 100 102 102 102 103 104 104 104 102 101 100 99 97 96 95 95 94 94 94 94 94 94 94 93 93 94 94 95 96 95 96 96 97 97 98 98
Wind_Direction
218 219 222 224 226 228 229 230 228 228 229 230 233 236 239 242 245 248 251 254 256 258 260 263 265 266 268 269 270 272 274 276 278 280 282 283 285 286 287 288 289 289 289 288 287 286 284 282 280 277 276 274 274 274 274 272 271 270 269 269 268 267 267 266 266 266 265 265 265 264 263 264 264 263 262 261 261 261 261 259 258 257 256 256 256 256 256 256
218 219 222 225 227 228 230 232 233 232 233 235 238 241 244 247 250 253 254 255 257 258 261 263 265 266 267 269 271 273 275 276 278 280 281 283 284 286 287 288 288 288 288 287 285 284 282 280 278 277 275 274 273 273 274 273 272 269 267 268 269 270 270 270 270 269 269 268 267 266 266 265 264 264 263 262 262 262 261 260 260 259 258 258 257 256 256 256
220 220 222 225 227 228 230 232 234 235 236 238 241 245 247 249 252 253 253 255 256 258 260 262 264 266 268 270 272 273 274 276 278 280 281 283 284 286 287 287 287 287 286 285 284 282 281 278 276 275 274 274 274 274 274 274 273 270 267 265 266 267 267 268 268 269 270 270 270 269 268 268 267 265 264 263 263 263 261 261 261 261 261 261 260 259 259 258
221 222 224 227 228 230 231 232 233 235 237 240 243 245 247 249 250 252 254 257 259 260 261 263 264 266 268 270 271 273 275 277 279 281 283 284 286 287 287 287 286 285 285 284 283 281 279 277 275 272 272 272 273 273 274 275 274 272 269 268 267 267 266 266 266 266 267 268 269 270 270 270 269 268 266 266 267 266 264 264 264 263 263 263 262 261 261 260
222 224 227 229 231 232 234 235 235 235 238 241 243 245 247 249 252 255 258 260 261 262 263 264 265 266 268 269 271 274 277 279 281 283 285 286 287 288 287 286 285 284 283 282 281 280 279 277 275 272 270 270 271 272 274 275 274 273 272 271 270 269 268 267 266 265 265 266 267 268 269 269 269 269 268 268 268 267 267 266 266 265 264 263 262 262 262 261
223 225 228 230 233 235 237 237 238 238 239 242 244 247 249 252 255 258 259 261 262 263 264 264 265 266 268 270 273 275 278 280 282 284 286 287 287 287 286 285 283 282 281 280 279 279 278 277 276 274 272 271 270 271 273 273 273 272 272 272 272 272 270 269 268 267 266 265 266 267 268 268 268 268 268 268 267 267 268 268 268 267 265 263 262 261 261 261
223 225 228 231 234 236 237 238 239 241 242 245 247 250 252 255 257 259 260 260 261 262 263 264 265 267 270 272 275 277 279 281 283 285 286 286 285 285 284 283 282 282 280 280 279 278 277 277 276 275 274 273 272 271 272 273 273 272 272 272 272 272 272 271 271 270 270 269 268 269 269 269 269 270 270 270 267 267 268 270 270 269 268 268 267 266 265 264
223 225 228 230 233 235 236 239 241 244 246 249 251 253 255 256 257 258 259 259 260 261 263 265 267 269 272 274 276 278 280 282 284 285 285 285 284 284 284 284 283 283 282 281 281 280 279 278 277 276 275 275 273 273 272 272 272 272 272 272 272 271 271 271 271 271 271 270 269 270 270 271 272 273 273 271 269 268 268 269 269 269 269 269 269 269 268 268
224 225 228 230 233 235 238 241 244 247 251 253 255 255 255 255 255 255 256 258 260 262 264 266 269 271 273 275 277 279 281 283 284 284 285 285 284 285 285 285 284 284 283 283 282 281 280 279 278 277 276 275 274 274 273 273 273 272 272 272 272 272 271 271 270 270 270 269 269 269 269 270 271 271 271 270 270 271 270 270 270 269 269 269 268 267 267 267
227 228 229 232 234 237 240 243 246 250 253 255 255 254 252 251 252 253 256 259 261 264 266 268 270 271 273 276 278 280 282 284 285 285 285 285 285 285 285 285 285 285 284 284 283 282 281 280 279 279 278 277 276 276 275 275 274 274 273 273 273 273 273 272 271 271 270 270 270 269 269 270 270 269 268 268 270 270 270 270 270 270 270 270 269 269 268 268
229 230 231 233 236 239 242 244 248 252 253 253 251 249 249 250 252 254 257 259 261 264 266 268 270 272 274 277 279 281 283 285 285 285 285 286 286 287 287 287 287 286 286 286 285 284 283 283 282 281 280 279 279 278 277 277 276 276 275 275 274 274 274 273 273 272 272 271 271 270 270 270 270 268 267 267 269 269 269 270 270 271 271 271 271 271 270 269
230 232 233 235 237 240 243 246 249 251 249 247 245 246 249 251 253 255 256 259 262 264 266 268 271 273 276 279 281 283 284 285 285 285 286 287 288 288 289 289 289 289 288 288 287 286 285 284 284 283 282 282 281 280 279 279 278 277 277 276 276 275 275 275 274 274 273 273 272 271 271 270 270 268 267 267 268 269 270 270 270 271 271 271 271 271 271 270
230 232 234 236 238 242 244 245 246 245 243 243 245 247 250 252 254 256 258 261 263 265 268 270 273 276 278 281 282 283 284 284 285 286 287 288 289 290 291 291 291 291 290 289 288 288 287 286 286 285 284 283 283 282 281 280 279 279 278 277 276 276 276 275 275 275 274 274 273 272 272 271 270 268 268 268 268 269 269 270 270 270 271 271 271 271 271 270
230 233 235 237 239 241 241 240 238 238 240 242 245 248 250 253 255 258 260 263 265 268 270 272 275 278 280 282 283 283 284 285 286 288 289 291 292 293 293 293 292 292 292 291 291 290 289 288 287 286 285 284 283 283 282 281 280 279 279 278 276 276 275 275 275 274 274 274 273 273 272 270 270 269 269 269 268 268 269 269 270 270 270 270 270 270 270 270
230 232 234 235 236 236 234 232 233 236 239 242 245 248 251 254 257 259 262 265 268 270 272 275 277 280 281 282 283 284 286 287 289 290 292 293 294 295 294 294 294 294 293 293 292 291 291 290 289 288 288 287 286 285 284 283 282 281 280 279 277 276 276 275 275 275 274 274 273 272 272 270 269 270 270 269 269 269 269 269 269 269 269 269 269 269 269 269
227 228 229 229 229 229 228 229 233 237 240 244 247 250 253 256 259 262 265 268 270 272 275 278 280 281 282 283 285 286 288 290 291 293 294 295 295 295 295 296 296 296 296 296 295 295 294 294 293 293 292 291 290 289 288 287 286 285 284 282 281 280 278 277 277 276 275 274 273 273 272 270 269 269 270 270 270 270 269 268 268 267 268 268 268 268 268 268
222 222 222 222 223 224 227 230 234 238 242 245 248 252 255 258 261 265 267 270 272 275 278 279 281 282 284 285 287 289 290 292 293 295 295 296 296 297 297 298 298 299 299 299 299 298 298 297 297 296 295 294 294 293 292 291 290 289 287 286 284 283 281 280 280 279 277 276 275 274 274 271 269 269 270 271 271 270 268 267 267 268 268 268 268 268 268 269
216 217 217 217 220 224 227 231 236 240 244 247 250 254 257 260 264 267 270 272 275 278 279 280 282 285 286 288 289 290 292 293 295 296 297 298 298 299 299 300 301 301 302 301 301 301 300 300 299 299 298 297 296 295 294 293 292 291 290 288 287 285 283 282 281 280 280 279 277 277 276 273 271 271 271 271 270 269 268 268 269 269 268 268 268 268 268 268
210 211 213 216 220 225 229 234 238 241 245 249 252 256 260 263 267 270 273 276 278 279 281 283 285 287 287 289 290 292 294 296 297 298 299 299 300 301 302 303 303 303 304 303 303 303 302 302 301 300 300 300 299 299 298 297 296 295 293 291 289 287 285 284 283 282 281 281 280 279 278 276 275 274 274 273 272 270 269 269 269 269 269 269 268 268 269 269
207 209 213 217 222 227 231 236 240 244 247 251 255 259 263 267 270 273 276 278 280 282 284 286 287 287 288 290 292 295 297 298 299 299 300 300 302 303 304 305 305 306 306 305 305 304 303 303 302 302 302 302 301 301 300 299 298 296 295 293 291 289 287 286 284 283 282 282 282 282 281 279 278 278 277 276 274 273 272 271 270 269 268 268 267 267 268 268
208 211 214 219 224 229 234 238 242 247 250 254 259 263 267 270 273 277 279 281 282 284 286 286 287 288 290 293 296 298 299 299 299 300 301 303 304 306 307 308 308 308 308 307 306 305 304 303 303 302 301 300 300 299 298 298 297 297 296 295 293 291 289 287 286 284 284 283 283 283 282 280 279 278 278 278 276 274 274 273 272 272 271 269 269 268 268 268
210 213 216 221 226 231 236 240 245 249 253 258 263 267 271 274 277 279 280 282 284 285 286 287 288 291 293 296 298 298 299 299 300 302 304 306 308 309 310 310 310 310 309 308 307 306 304 303 302 301 300 299 299 298 298 297 297 297 297 296 296 295 293 291 290 288 287 286 285 285 284 281 280 279 278 277 276 275 274 274 273 273 273 272 271 270 270 270
213 216 219 224 229 233 238 242 246 251 256 261 266 270 273 276 278 279 281 283 285 285 286 288 290 293 295 297 298 298 299 301 303 306 308 309 310 311 312 312 311 310 309 308 307 306 305 304 303 302 301 300 299 299 299 299 298 298 298 298 298 297 297 296 295 293 291 289 288 288 286 283 281 280 279 277 276 276 274 274 274 273 273 273 273 273 272 273
216 219 222 226 231 236 240 244 248 253 259 264 268 271 274 277 278 280 282 283 284 284 286 289 292 295 296 298 298 299 301 303 307 309 310 312 312 312 312 312 312 311 310 309 309 308 308 307 306 304 303 302 301 300 300 300 300 300 300 300 300 299 299 298 298 298 296 294 292 291 289 285 282 280 279 278 276 276 275 274 273 272 272 272 273 273 274 274
220 223 226 229 233 238 242 247 252 257 262 266 269 272 274 276 278 280 281 282 283 285 288 291 293 296 297 299 300 301 304 307 309 311 312 313 313 313 313 313 313 313 312 311 311 310 309 309 308 307 306 305 304 304 303 303 303 303 302 302 301 300 300 299 299 300 300 299 296 294 293 291 288 283 280 279 278 276 276 275 274 273 272 272 272 273 273 273
223 228 230 233 236 241 245 251 256 260 264 267 270 272 274 275 277 279 280 281 283 286 289 292 295 297 298 300 301 304 307 309 311 312 314 314 314 314 314 314 314 314 314 313 313 312 311 311 311 310 310 310 309 308 308 308 308 307 305 304 303 302 301 300 299 298 299 299 297 296 296 296 294 290 285 283 281 279 277 275 274 274 274 274 273 272 272 271
226 231 235 237 240 244 249 254 259 263 266 268 270 271 272 275 277 279 280 282 285 288 292 295 297 298 300 301 303 306 308 310 312 313 315 315 316 316 316 316 316 316 316 315 314 313 312 312 312 312 312 312 311 311 310 310 310 309 308 307 306 305 304 303 302 300 299 299 297 296 295 294 295 292 289 287 285 283 281 278 276 275 275 274 273 273 272 271
229 234 239 242 245 248 253 259 262 264 266 267 269 270 273 275 278 278 280 283 286 291 295 297 298 300 301 303 305 308 310 311 312 314 315 316 317 317 318 317 317 317 316 315 315 314 313 313 313 313 312 311 311 310 310 309 308 308 308 307 307 307 306 306 305 303 303 303 300 299 298 298 299 295 290 288 286 285 284 283 282 280 277 275 274 273 272 272
233 237 241 245 249 254 259 262 264 265 266 267 269 272 274 276 277 279 282 286 289 294 297 299 300 301 302 304 307 309 310 312 313 314 315 316 317 318 319 318 318 317 316 316 315 314 314 314 313 312 312 311 311 310 310 308 308 307 307 307 306 306 305 306 306 304 305 305 303 304 304 305 306 301 296 292 288 285 284 283 282 280 278 276 275 274 273 274
236 240 244 248 254 259 262 263 264 264 265 267 270 273 275 276 278 281 285 288 292 296 298 300 301 302 304 306 308 309 310 312 313 314 316 317 318 318 319 318 318 317 317 316 315 314 314 314 313 313 312 312 312 311 310 309 309 308 307 307 306 305 304 305 305 304 305 306 305 306 308 309 309 304 300 299 295 290 287 284 282 280 278 276 275 275 275 276
238 241 246 252 257 260 261 262 262 263 266 269 272 274 275 277 280 284 287 291 295 298 299 301 302 303 305 306 308 309 311 312 314 315 317 317 318 318 319 318 318 318 317 317 316 315 314 314 314 314 313 313 313 312 311 310 309 309 308 307 307 305 304 305 305 302 304 305 304 305 307 309 310 304 302 302 300 296 292 288 284 281 279 278 277 277 278 278
239 244 249 253 256 257 258 259 261 264 268 271 273 274 275 279 283 287 290 294 297 299 300 302 303 304 305 306 308 310 311 313 314 315 317 318 318 317 317 318 318 317 317 317 317 316 316 315 315 315 314 314 313 313 312 311 310 310 309 309 308 306 304 305 304 302 304 304 303 305 305 307 307 302 301 302 301 299 296 292 289 285 281 278 278 279 279 279
241 245 249 252 254 255 256 258 262 267 270 271 272 274 277 282 286 289 293 296 298 300 301 302 303 304 305 306 308 310 311 313 314 316 317 317 317 316 316 317 317 316 316 317 317 316 316 316 315 316 315 314 314 313 313 312 310 310 310 310 309 307 306 306 303 302 304 303 304 305 304 305 304 300 300 300 298 296 295 295 293 289 285 282 281 280 280 280
243 246 248 250 251 252 255 260 265 268 269 270 272 276 281 285 288 292 295 298 300 301 302 302 303 303 304 306 308 310 312 313 314 316 316 317 316 315 316 317 316 315 315 316 315 314 315 316 315 315 315 314 313 312 312 310 308 308 310 310 309 307 307 306 304 304 303 302 305 305 304 307 305 301 301 297 293 292 294 295 293 291 289 287 285 283 282 281
242 245 246 247 250 254 259 264 266 267 268 271 275 279 284 287 291 295 298 300 301 301 301 301 302 303 304 306 308 310 312 314 315 316 316 316 315 315 315 317 316 315 315 315 314 313 314 316 314 313 313 312 312 312 311 309 307 308 309 309 308 308 307 305 304 305 303 302 304 304 304 306 304 303 301 294 290 292 293 293 292 292 293 292 291 291 289 287
241 243 245 249 254 259 263 265 266 268 271 275 280 284 288 291 294 298 300 301 301 301 301 301 302 303 304 306 308 310 313 314 314 315 315 315 315 315 315 316 316 315 315 314 314 312 314 316 314 312 312 312 312 311 310 308 307 308 309 308 307 307 305 304 304 304 302 301 301 301 301 301 300 301 298 293 291 292 291 289 289 290 291 291 293 294 293 291
240 243 247 252 257 261 264 265 267 271 275 280 285 288 291 295 298 300 301 302 301 300 300 301 302 303 304 307 308 310 313 313 312 313 314 315 315 314 314 316 315 315 315 314 314 312 312 314 315 314 312 312 312 311 309 308 307 308 308 307 307 306 304 303 303 304 303 301 299 300 300 298 299 299 294 291 290 288 287 287 287 287 287 288 289 290 289 289
240 245 251 255 259 262 264 267 271 276 281 285 288 292 296 299 301 302 302 302 301 300 300 300 302 303 305 306 308 310 312 312 311 312 313 314 314 314 314 315 315 315 314 313 313 312 311 313 317 316 313 313 313 311 309 308 307 307 307 306 306 305 304 304 304 304 304 302 300 300 300 300 301 300 296 292 289 286 285 285 285 285 286 287 288 287 286 286
244 249 253 258 262 265 267 272 277 282 285 289 292 296 299 301 302 303 302 301 301 300 300 301 302 303 304 305 308 310 311 311 311 312 314 314 313 313 314 314 315 315 313 313 313 312 311 313 317 317 314 314 314 311 309 308 307 307 306 305 305 305 304 304 304 305 305 303 302 301 301 303 303 301 297 292 288 287 286 284 283 284 285 286 286 286 285 285
248 252 256 260 264 268 272 278 282 285 289 292 296 299 301 302 303 303 302 301 300 300 300 301 302 303 303 305 307 309 309 310 311 312 314 313 313 313 313 314 314 313 312 313 312 312 311 312 316 318 315 314 314 311 309 308 307 305 305 305 305 305 305 304 304 305 305 304 304 304 303 303 303 301 297 292 288 287 287 284 282 281 282 284 285 285 286 285
251 255 259 263 267 271 277 281 284 288 293 297 300 302 302 303 304 303 301 301 300 300 300 301 301 302 304 306 307 308 309 310 311 312 313 313 313 312 312 313 313 313 312 313 312 312 312 312 315 316 315 315 314 310 309 308 306 304 304 305 306 305 305 305 304 305 304 304 305 305 303 303 303 301 298 295 292 290 288 286 284 283 282 283 283 284 284 283
255 258 262 266 270 274 278 282 287 293 297 300 302 303 303 304 304 302 301 300 300 300 300 300 301 303 305 307 307 307 308 310 311 312 312 312 312 311 312 313 313 313 313 313 313 312 312 313 314 315 315 315 313 312 310 308 306 305 306 307 306 305 305 304 303 304 303 303 305 305 302 301 302 300 298 296 294 292 290 290 289 287 286 285 283 282 281 281
257 260 264 269 273 276 280 285 291 296 299 301 302 303 303 303 303 301 300 300 300 300 300 301 302 304 306 307 307 307 308 309 310 311 311 311 310 311 312 313 313 313 313 312 313 312 312 313 313 314 314 313 313 313 311 309 307 307 308 307 306 305 304 303 303 303 302 304 305 302 299 301 302 299 297 295 294 293 293 292 290 289 287 285 284 283 281 280
259 264 269 273 275 278 283 288 293 297 299 300 302 302 302 302 301 300 300 300 301 301 301 302 303 305 306 307 307 308 308 309 310 310 309 309 309 310 311 312 312 312 312 312 312 311 312 313 314 314 313 312 313 313 311 309 307 307 307 306 305 304 303 302 303 302 302 305 303 299 299 302 300 296 295 295 295 294 292 291 289 288 286 285 284 283 281 280
264 270 274 277 279 281 286 292 296 298 299 300 301 301 301 300 300 300 301 301 302 303 303 304 305 306 307 307 308 309 309 309 310 310 309 308 309 310 310 311 311 311 311 311 311 311 312 313 314 314 313 313 314 314 312 309 307 307 306 305 304 304 303 303 302 302 302 302 299 298 301 301 296 294 295 296 295 293 292 290 289 287 285 284 283 282 281 280
270 275 278 280 282 285 290 294 297 298 299 299 300 299 300 300 299 300 301 302 303 304 305 305 305 307 307 307 309 309 309 309 311 311 309 309 310 310 310 310 310 311 311 311 311 311 311 313 314 313 311 312 314 314 312 309 307 307 307 305 305 304 303 303 301 301 301 299 298 300 301 297 294 294 295 294 294 293 292 291 289 288 287 285 284 283 282 281
274 278 280 283 285 289 294 296 297 297 298 299 299 300 300 299 299 301 303 304 305 306 307 306 307 308 308 308 309 309 309 309 310 310 310 310 311 311 310 310 311 311 311 311 311 310 311 312 313 310 309 311 313 312 309 307 307 307 306 305 305 304 303 301 300 300 300 298 299 300 298 295 294 295 295 294 293 292 291 290 289 288 287 286 285 284 283 282
278 281 283 286 289 293 295 296 296 297 298 299 300 300 300 300 301 303 304 306 308 309 309 308 309 309 309 309 309 309 309 309 310 310 309 309 310 310 310 310 310 310 310 310 310 310 310 311 311 309 309 311 311 309 307 306 306 305 304 304 304 302 301 300 300 300 299 299 299 299 297 296 296 296 295 295 294 293 292 291 290 289 287 286 285 284 284 283
282 284 286 289 292 293 294 295 296 298 299 299 300 300 301 302 303 304 305 307 309 310 310 309 309 310 309 309 310 310 310 310 310 309 308 309 309 309 309 309 309 308 309 309 309 309 309 310 309 308 309 310 309 306 305 304 304 303 303 303 303 302 302 301 301 301 300 299 299 298 297 296 296 296 296 295 294 293 292 292 291 290 288 287 286 285 284 283
283 285 288 290 292 293 294 295 296 297 297 298 300 301 302 303 304 305 306 308 309 309 309 308 308 308 308 309 310 310 310 310 310 309 309 309 309 309 309 309 309 309 310 310 309 309 309 309 309 308 309 309 307 304 304 304 304 304 305 305 304 304 303 302 302 301 299 299 298 297 296 296 295 295 295 294 293 293 292 291 291 290 289 288 287 286 285 284
283 286 288 290 292 293 294 295 295 296 297 299 300 301 302 303 303 305 307 308 308 308 307 307 308 308 308 309 309 310 310 310 310 310 310 310 310 310 310 310 311 311 311 310 309 309 309 309 309 307 307 308 307 305 305 306 306 307 307 306 305 304 303 302 301 300 299 298 297 296 295 295 294 294 293 293 293 292 291 291 290 290 289 288 287 286 285 284
285 288 290 291 292 293 294 295 296 297 298 299 300 301 301 302 303 305 306 307 308 308 308 308 308 308 309 309 310 310 310 310 310 310 310 311 311 311 311 311 312 312 311 311 310 309 309 308 308 307 308 309 309 308 308 308 307 307 306 305 304 302 301 300 299 299 298 297 295 294 293 292 292 291 291 291 290 290 290 290 290 289 289 288 287 286 285 284
Height
10665 10668 10670 10673 10676 10678 10680 10683 10685 10687 10689 10692 10694 10695 10697 10698 10700 10701 10703 10704 10705 10705 10706 10706 10706 10706 10706 10705 10704 10703 10702 10702 10700 10699 10698 10696 10695 10693 10691 10689 10688 10686 10684 10682 10680 10678 10676 10675 10674 10672 10672 10671 10670 10668 10667 10665 10664 10664 10664 10663 10661 10661 10661 10661 10661 10660 10660 10660 10660 10660 10660 10659 10658 10658 10658 10658 10656 10655 10655 10654 10655 10657 10657 10658 10658 10658 10658 10658
10662 10666 10668 10671 10673 10676 10679 10681 10683 10685 10687 10690 10692 10693 10694 10696 10697 10698 10699 10700 10701 10702 10703 10703 10703 10703 10702 10701 10700 10699 10698 10697 10697 10696 10694 10693 10691 10689 10688 10685 10683 10681 10679 10677 10675 10673 10672 10670 10669 10667 10666 10666 10665 10663 10662 10661 10660 10659 10659 10657 10655 10656 10656 10654 10654 10654 10654 10654 10653 10653 10653 10652 10652 10653 10652 10652 10650 10650 10648 10645 10648 10650 10649 10651 10652 10652 10652 10652
10661 10664 10666 10669 10671 10674 10677 10679 10681 10683 10685 10687 10689 10690 10692 10693 10694 10695 10696 10697 10698 10698 10699 10699 10699 10699 10698 10697 10696 10695 10694 10694 10693 10692 10690 10689 10687 10685 10683 10681 10678 10676 10674 10672 10670 10668 10667 10665 10664 10663 10661 10660 10660 10658 10658 10657 10656 10655 10654 10652 10651 10652 10650 10649 10649 10648 10647 10647 10646 10646 10646 10645 10646 10647 10646 10645 10644 10643 10639 10638 10643 10643 10642 10644 10645 10645 10645 10645
10659 10662 10664 10667 10669 10672 10674 10677 10679 10681 10683 10685 10686 10688 10689 10690 10691 10692 10692 10693 10694 10694 10695 10695 10695 10695 10694 10693 10692 10691 10690 10690 10688 10687 10686 10684 10682 10680 10678 10676 10674 10671 10669 10667 10665 10664 10662 10660 10659 10658 10656 10655 10654 10652 10652 10652 10651 10650 10648 10646 10646 10646 10644 10644 10644 10643 10642 10640 10639 10639 10639 10638 10638 10639 10638 10637 10638 10633 10629 10633 10637 10635 10635 10637 10637 10637 10638 10638
10657 10660 10662 10665 10667 10670 10672 10675 10677 10679 10680 10682 10684 10685 10686 10687 10688 10689 10689 10690 10690 10690 10691 10691 10691 10691 10690 10689 10688 10687 10686 10685 10684 10682 10681 10679 10676 10674 10673 10671 10669 10667 10664 10662 10660 10659 10657 10655 10654 10653 10652 10650 10649 10647 10646 10646 10645 10644 10642 10640 10640 10639 10639 10638 10638 10637 10635 10634 10633 10632 10632 10630 10629 10631 10629 10630 10628 10621 10621 10626 10628 10627 10628 10629 10629 10629 10629 10629
10655 10658 10660 10663 10665 10668 10670 10673 10674 10676 10678 10679 10681 10682 10684 10685 10685 10686 10686 10686 10686 10687 10687 10687 10687 10686 10686 10685 10684 10683 10682 10681 10679 10678 10676 10674 10672 10670 10668 10666 10664 10662 10660 10658 10656 10654 10652 10650 10649 10647 10646 10645 10644 10641 10640 10640 10639 10638 10635 10634 10634 10632 10631 10630 10630 10630 10628 10628 10626 10625 10625 10622 10622 10623 10623 10623 10616 10611 10616 10619 10618 10618 10618 10619 10620 10620 10620 10621
10653 10656 10659 10661 10664 10666 10668 10670 10672 10674 10675 10677 10679 10680 10681 10682 10682 10682 10682 10683 10683 10683 10683 10683 10683 10682 10682 10681 10680 10679 10678 10677 10675 10673 10671 10669 10668 10665 10663 10661 10659 10657 10655 10653 10651 10650 10648 10646 10644 10642 10640 10639 10638 10635 10634 10634 10633 10631 10628 10627 10627 10625 10624 10622 10622 10621 10621 10621 10619 10618 10617 10614 10615 10616 10616 10613 10603 10604 10612 10611 10609 10609 10608 10610 10611 10611 10612 10613
10652 10655 10657 10660 10662 10664 10666 10668 10670 10672 10673 10674 10676 10677 10678 10678 10679 10679 10679 10679 10679 10680 10680 10679 10679 10679 10678 10677 10676 10675 10674 10672 10671 10669 10667 10665 10663 10660 10658 10656 10654 10652 10650 10648 10646 10645 10643 10641 10638 10636 10635 10633 10632 10629 10628 10627 10626 10624 10621 10620 10619 10618 10616 10614 10614 10613 10613 10613 10611 10611 10609 10607 10607 10608 10608 10599 10592 10600 10606 10602 10600 10600 10601 10602 10602 10602 10603 10604
10650 10653 10655 10658 10660 10663 10665 10667 10668 10670 10671 10672 10673 10674 10675 10675 10676 10676 10676 10676 10676 10676 10676 10676 10676 10675 10675 10673 10672 10671 10669 10668 10667 10664 10662 10660 10658 10655 10653 10651 10650 10647 10645 10643 10641 10640 10637 10635 10633 10631 10629 10627 10625 10624 10622 10620 10618 10617 10615 10613 10610 10609 10608 10607 10606 10604 10604 10603 10603 10603 10601 10600 10600 10601 10599 10586 10585 10594 10595 10593 10592 10592 10593 10592 10593 10594 10594 10595
10648 10651 10654 10656 10659 10661 10663 10665 10666 10668 10669 10670 10670 10671 10672 10672 10673 10673 10673 10673 10673 10674 10674 10673 10673 10672 10671 10670 10669 10667 10665 10664 10662 10659 10657 10655 10653 10651 10649 10647 10645 10643 10641 10638 10636 10635 10633 10631 10628 10625 10624 10621 10619 10617 10616 10614 10611 10609 10608 10606 10602 10600 10599 10598 10596 10595 10595 10594 10594 10595 10593 10593 10591 10592 10588 10576 10580 10587 10584 10585 10584 10583 10583 10582 10583 10584 10584 10585
10647 10649 10652 10654 10657 10660 10662 10663 10664 10666 10667 10667 10668 10668 10669 10669 10670 10670 10670 10671 10671 10671 10671 10670 10669 10668 10667 10666 10665 10663 10661 10659 10657 10654 10652 10650 10648 10646 10644 10642 10640 10638 10636 10633 10631 10629 10627 10625 10622 10620 10617 10615 10613 10611 10609 10606 10604 10602 10600 10598 10595 10592 10590 10588 10587 10586 10586 10585 10585 10585 10586 10586 10581 10580 10576 10571 10575 10576 10576 10577 10575 10573 10572 10571 10572 10572 10573 10573
10645 10648 10651 10653 10656 10658 10660 10661 10663 10664 10664 10665 10665 10666 10666 10666 10667 10667 10668 10668 10669 10668 10668 10667 10666 10665 10664 10663 10661 10659 10657 10655 10652 10650 10648 10645 10643 10641 10639 10637 10635 10633 10631 10628 10626 10623 10621 10619 10616 10614 10611 10609 10606 10604 10602 10599 10597 10595 10593 10591 10587 10584 10582 10579 10577 10576 10576 10576 10575 10575 10580 10578 10569 10566 10566 10566 10568 10567 10568 10567 10565 10565 10563 10562 10561 10561 10561 10560
10644 10647 10649 10652 10654 10657 10658 10659 10661 10661 10662 10662 10663 10663 10664 10664 10664 10664 10665 10666 10666 10665 10664 10663 10662 10661 10660 10659 10657 10655 10652 10650 10648 10646 10643 10641 10639 10637 10634 10632 10630 10628 10625 10623 10620 10617 10615 10613 10611 10608 10605 10603 10599 10597 10595 10592 10590 10588 10586 10584 10580 10577 10574 10570 10569 10568 10567 10567 10566 10565 10573 10571 10556 10552 10556 10558 10561 10559 10559 10557 10556 10555 10553 10551 10551 10550 10549 10547
10643 10646 10648 10650 10653 10655 10656 10657 10658 10659 10659 10660 10660 10661 10661 10661 10662 10662 10663 10663 10663 10662 10661 10660 10659 10658 10656 10655 10653 10650 10648 10646 10644 10641 10639 10637 10634 10632 10630 10627 10625 10623 10620 10618 10615 10612 10610 10607 10604 10602 10599 10597 10593 10590 10588 10585 10582 10580 10579 10576 10572 10570 10567 10562 10560 10560 10559 10559 10557 10555 10563 10563 10545 10540 10546 10550 10552 10552 10551 10549 10547 10545 10543 10542 10540 10539 10537 10534
10642 10644 10646 10649 10651 10652 10654 10655 10656 10656 10657 10657 10658 10659 10659 10659 10660 10660 10660 10660 10659 10658 10657 10656 10655 10654 10652 10650 10648 10646 10644 10642 10640 10637 10635 10633 10630 10628 10625 10622 10620 10618 10615 10612 10609 10606 10604 10601 10598 10595 10592 10589 10587 10584 10581 10577 10574 10573 10572 10568 10564 10563 10560 10555 10552 10552 10551 10550 10548 10545 10553 10554 10537 10530 10536 10541 10543 10544 10544 10541 10537 10535 10533 10532 10530 10528 10526 10523
10640 10642 10645 10647 10648 10650 10651 10653 10653 10654 10655 10655 10656 10656 10657 10657 10657 10658 10658 10657 10656 10655 10654 10653 10652 10650 10648 10646 10644 10642 10640 10638 10636 10634 10632 10629 10626 10624 10621 10618 10615 10612 10610 10607 10603 10600 10597 10594 10591 10588 10585 10582 10579 10577 10573 10569 10567 10564 10563 10560 10556 10554 10552 10547 10544 10544 10542 10541 10538 10536 10542 10543 10529 10522 10526 10532 10534 10536 10536 10530 10525 10525 10523 10522 10520 10518 10515 10513
10638 10641 10643 10645 10646 10648 10649 10650 10651 10652 10652 10653 10654 10654 10655 10655 10655 10655 10655 10654 10653 10652 10651 10649 10647 10646 10644 10642 10640 10638 10636 10634 10632 10630 10628 10625 10622 10619 10616 10613 10610 10607 10604 10601 10597 10594 10590 10587 10584 10581 10578 10575 10572 10569 10566 10562 10559 10556 10555 10552 10548 10545 10543 10540 10537 10535 10533 10532 10529 10528 10533 10531 10520 10516 10520 10523 10526 10526 10523 10517 10515 10515 10515 10512 10510 10508 10506 10505
10637 10639 10641 10643 10645 10646 10647 10648 10649 10649 10650 10651 10652 10652 10653 10653 10653 10652 10651 10650 10650 10648 10647 10645 10643 10642 10640 10638 10636 10635 10632 10631 10628 10626 10623 10620 10617 10614 10611 10608 10605 10602 10598 10595 10591 10588 10584 10581 10577 10574 10571 10569 10565 10562 10559 10556 10553 10549 10547 10544 10540 10537 10534 10533 10531 10527 10524 10523 10520 10520 10523 10518 10510 10511 10513 10514 10517 10515 10510 10507 10507 10506 10504 10503 10501 10499 10496 10496
10635 10638 10639 10641 10643 10644 10645 10646 10647 10647 10648 10649 10649 10650 10650 10650 10650 10649 10648 10647 10646 10645 10643 10641 10639 10638 10636 10635 10633 10631 10629 10627 10624 10622 10619 10616 10613 10610 10607 10604 10601 10597 10593 10589 10586 10582 10578 10575 10571 10568 10565 10562 10558 10555 10552 10549 10546 10543 10540 10537 10534 10530 10525 10525 10524 10519 10517 10515 10511 10513 10514 10507 10503 10504 10504 10505 10506 10504 10500 10499 10498 10496 10495 10493 10492 10489 10487 10486
10634 10636 10638 10639 10641 10642 10643 10644 10644 10645 10646 10646 10647 10647 10648 10647 10647 10646 10645 10644 10642 10640 10639 10637 10636 10634 10633 10631 10629 10627 10625 10623 10621 10618 10615 10612 10609 10605 10602 10599 10596 10592 10588 10584 10581 10577 10573 10570 10566 10563 10559 10556 10553 10549 10546 10543 10539 10536 10533 10530 10528 10524 10518 10517 10517 10513 10511 10508 10504 10506 10506 10499 10496 10496 10495 10496 10496 10493 10492 10491 10489 10486 10486 10484 10482 10481 10479 10477
10632 10634 10636 10638 10639 10640 10641 10641 10642 10642 10643 10644 10644 10645 10645 10644 10643 10642 10641 10640 10638 10637 10635 10634 10632 10631 10629 10627 10626 10624 10621 10619 10617 10614 10611 10607 10604 10601 10597 10594 10591 10587 10583 10579 10575 10572 10568 10565 10561 10558 10555 10551 10548 10545 10541 10538 10534 10531 10528 10524 10521 10519 10513 10510 10510 10506 10505 10503 10498 10500 10500 10491 10488 10490 10488 10487 10486 10485 10484 10483 10480 10478 10477 10475 10474 10473 10471 10469
10631 10632 10634 10636 10637 10638 10638 10639 10640 10640 10641 10641 10642 10642 10641 10640 10639 10638 10637 10636 10634 10633 10632 10630 10629 10627 10626 10624 10622 10620 10618 10615 10612 10610 10607 10603 10600 10596 10592 10589 10585 10582 10578 10574 10571 10567 10564 10560 10557 10553 10550 10547 10543 10540 10537 10533 10530 10526 10522 10519 10515 10513 10509 10504 10503 10501 10498 10497 10493 10494 10494 10485 10480 10482 10483 10481 10477 10477 10478 10475 10473 10471 10468 10467 10465 10464 10463 10462
10629 10631 10633 10634 10635 10636 10636 10637 10638 10639 10639 10639 10640 10639 10638 10637 10636 10635 10634 10633 10631 10630 10629 10627 10626 10624 10622 10621 10619 10616 10614 10611 10608 10605 10602 10599 10595 10591 10588 10584 10581 10578 10574 10570 10567 10563 10559 10555 10552 10548 10545 10541 10538 10535 10531 10528 10525 10522 10518 10515 10511 10508 10505 10499 10497 10495 10493 10492 10489 10489 10487 10478 10473 10475 10476 10475 10471 10469 10471 10469 10466 10464 10461 10459 10457 10456 10456 10455
10628 10629 10631 10632 10633 10634 10634 10635 10636 10637 10637 10637 10637 10636 10635 10634 10633 10632 10631 10630 10629 10627 10626 10624 10623 10621 10619 10617 10615 10613 10610 10608 10604 10601 10598 10594 10591 10587 10584 10580 10576 10573 10569 10565 10562 10558 10554 10551 10547 10544 10540 10537 10533 10530 10527 10523 10520 10517 10513 10510 10506 10503 10500 10496 10492 10490 10487 10486 10485 10486 10483 10472 10465 10468 10468 10467 10466 10464 10463 10462 10460 10457 10455 10452 10450 10449 10449 10448
10626 10628 10629 10630 10631 10632 10632 10633 10634 10635 10635 10635 10634 10634 10633 10632 10631 10629 10628 10627 10626 10625 10623 10622 10620 10618 10616 10614 10612 10609 10606 10603 10600 10597 10594 10590 10587 10583 10579 10576 10572 10568 10564 10560 10557 10553 10549 10546 10542 10539 10535 10532 10528 10525 10522 10518 10514 10512 10509 10505 10502 10498 10496 10492 10489 10486 10483 10479 10479 10481 10481 10470 10458 10458 10462 10461 10459 10459 10458 10456 10453 10450 10449 10447 10445 10444 10442 10440
10625 10626 10627 10629 10630 10630 10631 10631 10632 10632 10632 10632 10631 10631 10630 10629 10628 10626 10626 10625 10623 10622 10621 10619 10617 10615 10613 10610 10608 10605 10602 10599 10596 10593 10590 10586 10582 10579 10575 10571 10567 10563 10560 10556 10552 10548 10545 10541 10537 10533 10530 10526 10523 10519 10516 10513 10509 10506 10503 10500 10497 10494 10491 10488 10485 10483 10480 10475 10472 10473 10476 10471 10457 10450 10454 10456 10453 10452 10452 10450 10446 10443 10443 10441 10438 10437 10435 10433
10623 10624 10626 10627 10628 10628 10629 10630 10630 10630 10630 10629 10628 10628 10627 10626 10625 10624 10623 10622 10620 10619 10618 10616 10614 10612 10609 10607 10604 10601 10598 10595 10592 10589 10585 10581 10578 10574 10571 10567 10563 10559 10555 10551 10547 10544 10540 10537 10533 10529 10525 10521 10517 10514 10510 10508 10505 10501 10497 10494 10492 10489 10486 10483 10480 10478 10477 10472 10467 10467 10468 10468 10458 10445 10447 10451 10447 10445 10445 10443 10441 10438 10436 10434 10431 10429 10427 10425
10622 10623 10625 10626 10626 10627 10627 10627 10627 10627 10627 10626 10626 10625 10624 10623 10622 10621 10620 10619 10617 10616 10615 10613 10610 10608 10606 10603 10600 10597 10594 10591 10588 10584 10581 10577 10573 10570 10566 10562 10558 10555 10550 10547 10543 10539 10536 10532 10529 10525 10521 10517 10513 10509 10506 10503 10500 10496 10493 10489 10486 10484 10481 10479 10476 10472 10472 10468 10462 10461 10460 10461 10455 10441 10439 10444 10442 10439 10439 10437 10434 10432 10429 10426 10423 10421 10418 10416
10621 10622 10623 10624 10624 10625 10625 10625 10625 10624 10624 10624 10623 10622 10621 10620 10620 10618 10617 10616 10614 10613 10611 10609 10607 10605 10602 10600 10597 10594 10590 10587 10584 10580 10576 10573 10569 10565 10562 10558 10554 10551 10546 10543 10539 10535 10532 10528 10524 10520 10516 10512 10509 10505 10501 10497 10495 10491 10488 10484 10481 10479 10476 10474 10471 10467 10467 10464 10458 10455 10454 10455 10451 10435 10428 10434 10435 10432 10432 10431 10428 10424 10421 10419 10416 10413 10411 10409
10620 10621 10621 10622 10623 10623 10622 10622 10622 10622 10622 10621 10620 10619 10618 10618 10617 10616 10614 10613 10611 10610 10608 10606 10604 10601 10599 10596 10593 10590 10587 10583 10580 10576 10572 10568 10564 10561 10558 10554 10550 10546 10542 10539 10535 10530 10526 10523 10519 10515 10511 10508 10504 10499 10495 10491 10488 10485 10482 10479 10476 10473 10471 10469 10467 10462 10461 10460 10454 10452 10449 10448 10448 10434 10421 10421 10423 10423 10423 10423 10420 10417 10414 10412 10409 10406 10404 10403
10618 10619 10620 10620 10621 10620 10620 10620 10620 10619 10619 10618 10618 10617 10616 10615 10614 10613 10611 10610 10608 10606 10604 10602 10600 10598 10595 10592 10589 10586 10583 10579 10576 10572 10567 10563 10559 10556 10553 10549 10546 10542 10538 10534 10530 10525 10521 10517 10514 10510 10505 10502 10498 10494 10490 10486 10482 10479 10475 10472 10470 10467 10465 10465 10461 10457 10456 10455 10451 10449 10446 10444 10443 10433 10420 10412 10409 10410 10412 10411 10410 10408 10406 10404 10402 10399 10398 10397
10617 10618 10618 10619 10618 10618 10618 10617 10617 10617 10616 10616 10615 10614 10613 10612 10611 10610 10608 10607 10605 10603 10601 10599 10596 10594 10591 10588 10586 10582 10579 10575 10572 10568 10563 10559 10554 10550 10548 10545 10541 10537 10534 10529 10525 10521 10515 10510 10507 10505 10500 10495 10491 10487 10483 10479 10475 10471 10468 10465 10462 10458 10458 10460 10456 10452 10451 10449 10447 10446 10443 10442 10440 10430 10420 10411 10400 10395 10397 10398 10397 10397 10396 10396 10395 10392 10391 10390
10615 10616 10616 10616 10616 10616 10615 10615 10615 10614 10614 10613 10612 10611 10610 10609 10608 10606 10605 10604 10602 10600 10597 10595 10593 10590 10587 10585 10582 10579 10575 10571 10568 10564 10559 10554 10549 10543 10541 10540 10536 10532 10530 10526 10522 10518 10513 10506 10499 10497 10494 10489 10485 10480 10476 10472 10467 10464 10461 10457 10454 10448 10446 10450 10448 10446 10446 10444 10442 10441 10438 10438 10437 10428 10418 10410 10398 10386 10384 10384 10383 10382 10383 10386 10388 10387 10385 10384
10614 10614 10614 10614 10614 10613 10613 10613 10612 10612 10611 10611 10610 10609 10608 10606 10605 10603 10602 10601 10599 10596 10594 10592 10589 10586 10584 10581 10578 10575 10572 10567 10563 10560 10555 10550 10544 10537 10533 10532 10529 10526 10524 10521 10518 10514 10512 10506 10497 10491 10488 10484 10479 10474 10470 10466 10460 10458 10455 10450 10447 10440 10434 10436 10437 10436 10437 10438 10438 10435 10432 10433 10431 10425 10417 10406 10395 10383 10377 10375 10370 10366 10368 10373 10378 10380 10378 10377
10611 10611 10611 10612 10611 10611 10611 10610 10610 10610 10609 10608 10607 10606 10605 10603 10602 10601 10599 10597 10595 10593 10591 10588 10585 10582 10580 10577 10574 10571 10568 10563 10559 10555 10550 10545 10539 10532 10527 10525 10521 10518 10515 10514 10512 10509 10509 10507 10497 10489 10485 10479 10475 10470 10464 10458 10452 10451 10449 10444 10440 10435 10426 10422 10424 10425 10423 10427 10432 10429 10426 10427 10423 10421 10413 10398 10389 10382 10373 10369 10360 10352 10353 10357 10362 10367 10367 10366
10609 10609 10609 10609 10609 10609 10609 10608 10608 10608 10607 10606 10605 10604 10602 10601 10599 10598 10596 10594 10592 10589 10587 10584 10582 10578 10575 10572 10569 10566 10564 10559 10554 10550 10544 10539 10533 10526 10521 10519 10514 10510 10507 10504 10503 10501 10503 10504 10497 10488 10483 10477 10471 10466 10458 10451 10443 10442 10442 10437 10432 10428 10421 10412 10411 10414 10410 10412 10422 10422 10420 10419 10416 10416 10408 10390 10384 10380 10367 10361 10357 10349 10345 10346 10351 10355 10354 10352
10607 10608 10608 10607 10607 10607 10607 10606 10606 10605 10605 10603 10602 10601 10600 10598 10597 10595 10593 10591 10588 10585 10582 10580 10577 10574 10571 10568 10564 10561 10558 10554 10549 10545 10540 10535 10529 10521 10515 10512 10508 10503 10499 10495 10493 10490 10492 10498 10496 10486 10479 10475 10469 10462 10454 10445 10437 10434 10431 10428 10423 10418 10413 10404 10399 10401 10398 10396 10405 10412 10413 10411 10408 10407 10400 10386 10380 10376 10363 10354 10352 10347 10340 10339 10344 10346 10345 10342
10606 10606 10606 10605 10605 10605 10605 10604 10604 10603 10602 10601 10600 10598 10597 10596 10594 10592 10590 10587 10584 10581 10578 10576 10573 10570 10566 10563 10559 10556 10552 10548 10543 10540 10536 10531 10524 10516 10510 10506 10502 10497 10491 10487 10485 10480 10478 10486 10493 10485 10475 10471 10465 10457 10450 10441 10432 10428 10423 10418 10414 10407 10402 10396 10390 10388 10384 10379 10385 10395 10401 10402 10396 10391 10388 10380 10372 10367 10360 10351 10346 10341 10336 10333 10334 10334 10333 10333
10604 10604 10604 10604 10604 10603 10603 10602 10602 10601 10600 10598 10597 10595 10594 10593 10591 10589 10586 10583 10580 10576 10573 10571 10568 10565 10561 10558 10555 10551 10546 10542 10537 10533 10530 10526 10520 10513 10506 10500 10496 10491 10485 10480 10476 10471 10466 10470 10482 10482 10473 10469 10463 10452 10444 10436 10426 10420 10415 10410 10405 10397 10391 10386 10382 10378 10370 10362 10364 10372 10382 10388 10382 10375 10375 10370 10361 10356 10352 10346 10339 10334 10330 10325 10323 10322 10321 10322
10602 10602 10602 10602 10602 10601 10601 10600 10599 10598 10597 10596 10594 10593 10591 10589 10588 10585 10582 10578 10575 10571 10568 10565 10563 10560 10557 10552 10549 10546 10542 10537 10531 10527 10523 10518 10512 10507 10501 10495 10490 10484 10479 10474 10468 10462 10456 10456 10465 10472 10467 10463 10459 10447 10438 10432 10421 10412 10407 10402 10396 10388 10379 10373 10371 10372 10362 10350 10348 10349 10356 10367 10363 10357 10358 10355 10348 10344 10340 10337 10332 10327 10322 10318 10315 10312 10310 10308
10601 10601 10601 10600 10600 10599 10599 10598 10597 10596 10594 10593 10591 10590 10588 10586 10584 10581 10577 10574 10570 10566 10563 10560 10557 10554 10551 10548 10543 10539 10537 10533 10526 10521 10517 10511 10504 10498 10494 10490 10484 10477 10471 10467 10461 10454 10448 10446 10451 10457 10456 10454 10451 10441 10433 10425 10415 10406 10399 10396 10390 10380 10370 10359 10355 10361 10355 10344 10340 10334 10332 10341 10343 10338 10337 10334 10330 10328 10327 10324 10320 10316 10312 10309 10306 10302 10298 10294
10599 10599 10599 10598 10598 10597 10596 10595 10594 10593 10591 10590 10588 10587 10584 10581 10579 10576 10572 10569 10566 10561 10558 10554 10551 10548 10545 10542 10537 10532 10530 10529 10524 10516 10511 10506 10498 10489 10486 10481 10476 10470 10463 10458 10454 10446 10439 10436 10437 10442 10444 10442 10438 10432 10424 10415 10405 10398 10393 10388 10381 10372 10364 10350 10341 10344 10344 10339 10336 10323 10314 10321 10324 10318 10315 10314 10311 10311 10311 10310 10305 10301 10298 10295 10291 10287 10284 10281
10597 10597 10597 10596 10595 10595 10594 10593 10591 10590 10588 10587 10585 10583 10580 10577 10574 10570 10567 10564 10561 10557 10553 10549 10546 10543 10539 10535 10531 10525 10522 10522 10520 10514 10505 10501 10494 10485 10479 10474 10467 10461 10453 10449 10445 10438 10432 10428 10424 10425 10428 10430 10429 10423 10413 10402 10391 10386 10382 10377 10369 10361 10354 10343 10333 10329 10325 10331 10330 10309 10299 10310 10308 10295 10293 10294 10294 10295 10295 10294 10291 10285 10281 10277 10274 10271 10268 10265
10596 10595 10595 10594 10593 10592 10591 10590 10588 10587 10585 10583 10581 10579 10576 10572 10569 10565 10561 10559 10556 10552 10547 10543 10540 10538 10534 10529 10525 10519 10513 10512 10513 10510 10502 10495 10490 10482 10475 10468 10462 10454 10446 10440 10435 10429 10425 10421 10414 10408 10406 10410 10417 10415 10405 10393 10383 10378 10373 10366 10358 10352 10343 10333 10327 10318 10310 10320 10318 10292 10288 10303 10292 10273 10272 10276 10277 10279 10277 10276 10274 10270 10265 10261 10256 10253 10250 10247
10594 10593 10592 10592 10591 10590 10589 10587 10585 10583 10581 10579 10577 10574 10571 10567 10563 10560 10556 10553 10550 10547 10542 10537 10534 10532 10527 10522 10519 10513 10505 10501 10502 10502 10496 10489 10485 10479 10471 10463 10456 10448 10440 10433 10425 10419 10416 10415 10408 10396 10387 10386 10392 10393 10386 10376 10370 10368 10364 10355 10346 10340 10332 10322 10314 10307 10301 10303 10298 10284 10283 10285 10271 10260 10260 10260 10258 10257 10256 10255 10254 10252 10248 10244 10240 10237 10233 10230
10591 10591 10590 10589 10588 10587 10586 10584 10581 10579 10577 10574 10572 10569 10566 10562 10557 10554 10551 10548 10545 10541 10537 10532 10529 10526 10522 10516 10513 10509 10500 10494 10491 10489 10485 10480 10476 10471 10464 10455 10448 10440 10432 10424 10417 10409 10405 10408 10405 10390 10379 10377 10376 10372 10364 10352 10347 10348 10345 10340 10333 10325 10319 10309 10298 10295 10290 10279 10276 10283 10277 10257 10247 10250 10251 10246 10241 10237 10235 10235 10233 10230 10226 10223 10221 10218 10214 10212
10589 10589 10588 10587 10585 10584 10582 10580 10578 10575 10572 10569 10567 10564 10561 10557 10552 10548 10545 10542 10539 10536 10532 10526 10522 10520 10515 10510 10508 10503 10497 10490 10485 10479 10473 10469 10466 10461 10454 10446 10437 10431 10424 10416 10409 10400 10393 10397 10397 10382 10373 10373 10369 10361 10351 10338 10331 10329 10324 10321 10320 10312 10304 10295 10285 10281 10275 10259 10256 10270 10264 10238 10229 10236 10235 10230 10227 10220 10217 10217 10215 10211 10207 10203 10201 10198 10195 10192
10587 10586 10585 10584 10583 10581 10579 10577 10574 10571 10567 10564 10561 10558 10555 10552 10547 10543 10540 10536 10533 10530 10527 10520 10515 10512 10507 10502 10499 10496 10490 10486 10481 10472 10464 10460 10457 10451 10446 10440 10430 10422 10417 10409 10401 10392 10384 10385 10384 10372 10366 10368 10362 10348 10337 10328 10322 10316 10308 10305 10305 10299 10290 10281 10274 10268 10260 10246 10239 10245 10243 10226 10216 10218 10216 10210 10207 10202 10198 10198 10197 10194 10190 10186 10183 10180 10177 10174
10584 10583 10582 10581 10579 10578 10575 10573 10570 10566 10563 10559 10556 10553 10550 10547 10542 10538 10535 10532 10527 10523 10520 10515 10509 10504 10499 10494 10490 10486 10480 10477 10474 10467 10457 10452 10447 10439 10434 10431 10423 10416 10411 10402 10393 10384 10375 10373 10369 10358 10354 10361 10354 10337 10324 10318 10312 10304 10298 10293 10288 10282 10274 10266 10260 10254 10245 10236 10227 10224 10222 10212 10202 10201 10199 10193 10188 10183 10179 10177 10177 10175 10171 10168 10165 10162 10159 10156
10582 10581 10579 10578 10576 10574 10571 10568 10566 10562 10558 10555 10552 10549 10546 10542 10537 10532 10528 10527 10524 10519 10515 10510 10504 10499 10493 10488 10483 10478 10472 10465 10460 10455 10447 10442 10437 10428 10421 10418 10412 10406 10401 10392 10383 10373 10362 10359 10355 10342 10339 10347 10342 10324 10312 10306 10298 10289 10284 10280 10272 10264 10258 10249 10243 10237 10230 10223 10215 10208 10204 10197 10189 10185 10182 10177 10172 10167 10162 10159 10157 10155 10153 10150 10147 10144 10141 10138
10579 10578 10576 10574 10572 10569 10567 10564 10561 10558 10554 10551 10548 10545 10541 10538 10534 10528 10522 10518 10517 10514 10510 10505 10501 10495 10488 10483 10477 10472 10466 10458 10450 10443 10435 10428 10424 10415 10406 10402 10397 10392 10388 10379 10370 10361 10350 10344 10340 10328 10324 10330 10325 10309 10299 10294 10284 10274 10266 10261 10255 10246 10239 10232 10226 10221 10216 10209 10202 10195 10188 10183 10178 10172 10166 10162 10156 10151 10146 10141 10139 10137 10134 10131 10129 10127 10123 10120
10576 10575 10573 10570 10568 10565 10563 10560 10557 10553 10550 10546 10543 10540 10536 10533 10530 10525 10519 10512 10509 10506 10502 10498 10494 10489 10482 10477 10471 10465 10459 10452 10444 10436 10427 10419 10411 10403 10393 10387 10382 10376 10371 10363 10354 10346 10336 10329 10324 10314 10307 10309 10305 10291 10282 10278 10271 10263 10252 10244 10239 10231 10223 10218 10212 10207 10202 10196 10190 10185 10178 10172 10167 10162 10157 10152 10145 10138 10131 10125 10121 10120 10116 10112 10110 10107 10104 10101